SV1DAY-13 Weather Reports


time (UTC)temp
F
wind
direction
speed
knots
gust
knots
rain 1hr
in
rain 24hr
in
rain mn
in
humidity
%
barometer
mb
20260504081551 56 279 15.6 26.9 0.00 0.00 0.00 50 1016.6
20260504050117 53 265 18.2 42.6 0.00 0.00 0.00 57 1014.5
20260504044548 53 265 21.7 34.8 0.00 0.00 0.00 58 1014.3
20260504043041 53 279 18.2 37.4 0.00 0.00 0.00 58 1014.3
20260504041543 53 280 22.6 36.5 0.00 0.00 0.00 57 1014.1
20260504040104 53 278 21.7 38.2 0.00 0.00 0.00 56 1013.5
20260504034554 53 279 15.6 29.5 0.00 0.00 0.00 59 1013.8
20260504033050 53 261 14.8 26.9 0.00 0.00 0.00 59 1013.7
20260504031605 53 275 24.3 40.0 0.00 0.00 0.00 59 1013.3
20260504030042 53 360 20.0 33.9 0.00 0.00 0.00 60 1013.2
20260504024545 52 236 19.1 39.1 0.00 0.00 0.00 59 1013.4
20260504023100 53 15 24.3 43.4 0.00 0.00 0.00 59 1013.0
20260504021600 53 280 26.9 42.6 0.00 0.00 0.00 56 1013.0
20260504020048 53 289 24.3 39.1 0.00 0.00 0.00 55 1013.1
20260504014550 53 360 27.8 47.8 0.00 0.00 0.00 54 1013.0
20260504013046 53 360 26.9 40.8 0.00 0.00 0.00 54 1012.7
20260504011559 53 9 28.7 50.4 0.00 0.00 0.00 56 1012.8
20260504010108 53 282 23.5 42.6 0.00 0.00 0.00 57 1013.1
20260504004555 53 278 26.1 41.7 0.00 0.00 0.00 54 1013.0
20260504003050 53 360 26.1 45.2 0.00 0.00 0.00 56 1012.9
20260504001604 53 267 26.1 45.2 0.00 0.00 0.00 54 1012.7
20260504000041 53 360 22.6 40.8 0.00 0.00 0.00 54 1012.6
20260503234600 53 360 26.1 49.5 0.00 0.00 0.00 53 1012.8
20260503233056 53 360 24.3 47.8 0.00 0.00 0.00 55 1012.7
20260503231501 53 281 26.9 40.0 0.00 0.00 0.00 56 1012.7
20260503230048 53 312 27.8 46.1 0.00 0.00 0.00 56 1012.7
20260503224552 53 265 25.2 39.1 0.00 0.00 0.00 59 1012.7
20260503223047 53 360 17.4 30.4 0.00 0.00 0.00 61 1012.9
20260503221557 52 30 16.5 32.2 0.00 0.00 0.00 63 1012.6
20260503220053 52 360 16.5 27.8 0.00 0.00 0.00 64 1012.6
20260503214558 52 267 19.1 33.9 0.00 0.00 0.00 65 1012.6
20260503213120 53 360 22.6 38.2 0.00 0.00 0.00 64 1012.6
20260503211612 53 360 21.7 37.4 0.00 0.00 0.00 62 1012.2
20260503210042 52 243 24.3 35.6 0.00 0.00 0.00 64 1012.3
20260503204621 50 263 20.9 33.9 0.00 0.00 0.00 65 1012.2
20260503203104 50 360 20.0 41.7 0.00 0.00 0.00 65 1012.4
20260503201553 50 13 16.5 31.3 0.00 0.00 0.00 65 1012.6
20260503200002 50 267 27.8 40.0 0.00 0.00 0.00 66 1011.7
20260503194546 50 30 17.4 29.5 0.00 0.00 0.00 66 1012.2
20260503193045 51 246 16.5 36.5 0.00 0.00 0.00 65 1012.1
20260503191606 51 66 20.0 38.2 0.00 0.00 0.00 65 1011.8
20260503190055 51 19 14.8 38.2 0.00 0.00 0.00 64 1011.8
20260503184630 51 13 20.9 34.8 0.00 0.00 0.00 64 1011.8
20260503183059 50 255 17.4 35.6 0.00 0.00 0.00 65 1011.9
20260503181545 50 248 21.7 33.0 0.00 0.00 0.00 65 1011.4
20260503180038 50 277 26.9 40.8 0.00 0.00 0.00 65 1010.8
20260503174552 50 261 21.7 34.8 0.00 0.00 0.00 65 1011.3
20260503173130 50 265 20.9 42.6 0.00 0.00 0.00 65 1011.1
20260503171548 50 312 27.8 38.2 0.00 0.00 0.00 65 1010.7